GW6913 Weather Reports


time (UTC)temp
C
wind
direction
speed
KPH
gust
KPH
rain 1hr
cm
rain 24hr
cm
rain mn
cm
humidity
%
barometer
mb
20260905204925 34 176 0.0 1.6 0.00 0.05 0.05 54 1016.3
20260905204422 34 190 1.6 3.2 0.00 0.05 0.05 52 1015.9
20260905203921 33 329 4.8 4.8 0.00 0.05 0.05 51 1016.3
20260905203416 34 134 1.6 3.2 0.00 0.05 0.05 50 1016.3
20260905202912 33 318 3.2 8.0 0.00 0.05 0.05 53 1016.1
20260905202407 33 155 0.0 0.0 0.00 0.05 0.05 56 1016.4
20260905201903 32 181 3.2 3.2 0.00 0.05 0.05 59 1016.5
20260905201358 31 301 4.8 8.0 0.00 0.05 0.05 65 1016.4
20260905200857 30 145 3.2 3.2 0.00 0.05 0.05 70 1016.7
20260905200353 31 140 1.6 3.2 0.00 0.05 0.05 68 1016.7
20260905195851 31 11 1.6 3.2 0.00 0.05 0.05 65 1016.8
20260905195347 32 167 0.0 1.6 0.00 0.05 0.05 69 1016.9
20260905194843 32 171 0.0 0.0 0.00 0.05 0.05 67 1016.7
20260905194342 32 158 0.0 0.0 0.00 0.05 0.05 66 1017.0
20260905193841 33 114 0.0 0.0 0.00 0.05 0.05 65 1016.8
20260905193336 33 175 0.0 0.0 0.00 0.05 0.05 63 1017.0
20260905192832 33 181 0.0 0.0 0.00 0.05 0.05 63 1016.9
20260905192328 32 180 0.0 1.6 0.00 0.05 0.05 65 1017.0
20260905191827 33 211 4.8 4.8 0.00 0.05 0.05 62 1017.2
20260905191326 34 328 1.6 1.6 0.00 0.05 0.05 58 1017.0
20260905190825 34 216 1.6 1.6 0.00 0.05 0.05 57 1017.1
20260905190324 35 306 1.6 1.6 0.00 0.05 0.05 56 1017.1
20260905185823 35 165 0.0 0.0 0.00 0.05 0.05 55 1016.8
20260905185319 34 183 1.6 3.2 0.00 0.05 0.05 58 1017.1
20260905184818 34 300 1.6 1.6 0.00 0.05 0.05 59 1017.3
20260905184317 33 256 0.0 0.0 0.00 0.05 0.05 60 1017.5
20260905183816 33 178 0.0 0.0 0.00 0.05 0.05 61 1017.3
20260905183311 33 169 3.2 3.2 0.00 0.05 0.05 62 1017.5
20260905182806 32 168 3.2 4.8 0.00 0.05 0.05 61 1017.5
20260905182306 32 165 8.0 8.0 0.00 0.05 0.05 62 1017.6
20260905181801 33 227 1.6 3.2 0.00 0.05 0.05 62 1017.7
20260905181301 32 186 0.0 0.0 0.00 0.05 0.05 63 1017.5
20260905180800 32 171 4.8 8.0 0.00 0.05 0.05 63 1017.6
20260905180255 32 177 1.6 1.6 0.00 0.05 0.05 63 1017.6
20260905175755 32 233 1.6 1.6 0.00 0.05 0.05 65 1017.8
20260905175250 32 164 6.4 8.0 0.00 0.05 0.05 64 1017.6
20260905174745 31 179 3.2 3.2 0.00 0.05 0.05 67 1017.7
20260905174241 32 215 6.4 9.7 0.00 0.05 0.05 64 1017.8
20260905173737 31 160 1.6 3.2 0.00 0.05 0.05 64 1017.4
20260905173232 31 183 4.8 8.0 0.00 0.05 0.05 63 1017.5
20260905172727 31 145 6.4 8.0 0.00 0.05 0.05 65 1017.6
20260905172226 31 214 4.8 4.8 0.00 0.05 0.05 65 1017.7
20260905171722 31 146 6.4 9.7 0.00 0.05 0.05 64 1017.7
20260905171218 31 184 3.2 3.2 0.00 0.05 0.05 64 1017.6
20260905170715 31 123 6.4 8.0 0.00 0.05 0.05 65 1017.8
20260905170215 31 158 4.8 8.0 0.00 0.05 0.05 66 1017.7
20260905165715 30 172 1.6 3.2 0.00 0.05 0.05 66 1017.7
20260905165210 30 149 4.8 4.8 0.00 0.05 0.05 64 1018.1
20260905164705 30 141 6.4 8.0 0.00 0.05 0.05 67 1017.9
20260905164205 30 204 3.2 3.2 0.00 0.05 0.05 66 1017.6
20260905163700 30 155 6.4 8.0 0.00 0.05 0.05 67 1017.8
20260905163157 29 157 8.0 9.7 0.00 0.05 0.05 68 1017.6
20260905162653 30 154 6.4 8.0 0.00 0.05 0.05 66 1017.6
20260905162153 30 179 6.4 8.0 0.00 0.05 0.05 67 1017.9
20260905161648 28 167 3.2 3.2 0.00 0.05 0.05 68 1017.8
20260905161145 28 171 8.0 9.7 0.00 0.05 0.05 68 1017.9
20260905160644 28 149 6.4 8.0 0.00 0.05 0.05 67 1017.7
20260905160143 29 207 9.7 12.9 0.00 0.05 0.05 65 1017.7
20260905155638 29 128 6.4 9.7 0.00 0.05 0.05 65 1017.6
20260905155138 29 155 9.7 11.3 0.00 0.05 0.05 67 1017.8
20260905154637 28 165 8.0 8.0 0.00 0.05 0.05 67 1017.9
20260905154133 28 181 8.0 9.7 0.00 0.05 0.05 66 1017.8
20260905153629 28 173 11.3 12.9 0.00 0.05 0.05 67 1017.8
20260905153124 28 137 11.3 12.9 0.00 0.05 0.05 68 1017.8
20260905152619 28 181 4.8 8.0 0.00 0.05 0.05 69 1017.6
20260905152113 28 100 9.7 11.3 0.00 0.05 0.05 69 1017.6
20260905151609 28 161 11.3 16.1 0.00 0.05 0.05 71 1017.5
20260905151104 27 151 8.0 12.9 0.00 0.05 0.05 71 1017.7
20260905150559 27 157 11.3 12.9 0.00 0.05 0.05 70 1017.8
20260905150057 27 174 11.3 14.5 0.00 0.05 0.05 71 1018.1
20260905145556 27 127 11.3 14.5 0.00 0.05 0.05 71 1017.9
20260905145055 27 167 14.5 16.1 0.00 0.05 0.05 70 1017.9
20260905144551 27 185 9.7 12.9 0.00 0.05 0.05 72 1017.8
20260905144050 27 129 11.3 14.5 0.00 0.05 0.05 72 1017.7
20260905143549 27 142 9.7 11.3 0.00 0.05 0.05 73 1017.8
20260905143044 27 149 9.7 12.9 0.00 0.05 0.05 74 1017.6
20260905142543 27 166 4.8 8.0 0.00 0.05 0.05 76 1017.5
20260905142039 26 144 8.0 9.7 0.00 0.05 0.05 77 1017.3
20260905141538 26 192 8.0 11.3 0.00 0.05 0.05 78 1017.4
20260905141036 26 178 8.0 9.7 0.00 0.05 0.05 81 1017.6
20260905140535 26 156 8.0 12.9 0.00 0.05 0.05 84 1017.5
20260905140034 26 155 12.9 14.5 0.00 0.05 0.05 84 1017.5
20260905135531 26 127 9.7 14.5 0.00 0.05 0.05 84 1017.4
20260905135031 26 156 6.4 9.7 0.00 0.05 0.05 84 1017.2
20260905134526 26 143 11.3 14.5 0.00 0.05 0.05 84 1017.6
20260905134024 26 92 8.0 11.3 0.00 0.05 0.05 86 1017.2
20260905133520 26 135 14.5 20.9 0.00 0.05 0.05 86 1017.4
20260905133020 25 127 8.0 11.3 0.00 0.05 0.05 89 1017.5
20260905132519 25 116 8.0 11.3 0.00 0.05 0.05 89 1017.4
20260905132014 25 172 9.7 11.3 0.00 0.05 0.05 90 1017.4
20260905131515 25 129 12.9 14.5 0.00 0.05 0.05 93 1017.3
20260905131010 25 98 4.8 4.8 0.00 0.05 0.05 95 1017.3
20260905130509 25 124 0.0 0.0 0.00 0.05 0.05 94 1017.0
20260905130004 25 121 0.0 0.0 0.00 0.05 0.05 93 1017.1
20260905125458 25 135 0.0 0.0 0.00 0.05 0.05 93 1017.0
20260905124954 25 135 0.0 0.0 0.00 0.05 0.05 92 1016.9
20260905124451 25 135 0.0 0.0 0.00 0.05 0.05 92 1016.9
20260905123946 25 135 0.0 0.0 0.00 0.05 0.05 93 1016.8
20260905123442 25 135 0.0 0.0 0.00 0.05 0.05 93 1017.2
20260905122942 25 140 0.0 1.6 0.00 0.05 0.05 93 1016.8
20260905122442 25 171 0.0 0.0 0.00 0.05 0.05 95 1016.7
20260905121938 24 180 0.0 0.0 0.00 0.05 0.05 96 1016.7
20260905121433 24 189 0.0 0.0 0.00 0.05 0.05 96 1016.7
20260905120932 23 185 0.0 0.0 0.00 0.05 0.05 97 1016.4
20260905120427 23 178 0.0 0.0 0.00 0.05 0.05 97 1016.6
20260905115922 23 192 0.0 0.0 0.00 0.05 0.05 97 1016.4
20260905115421 23 193 0.0 0.0 0.00 0.05 0.05 97 1016.4
20260905114917 23 204 0.0 0.0 0.00 0.05 0.05 97 1016.2
20260905114416 23 208 0.0 0.0 0.00 0.05 0.05 97 1016.6
20260905113915 23 159 0.0 0.0 0.00 0.05 0.05 97 1016.6
20260905113411 23 144 0.0 0.0 0.00 0.05 0.05 97 1016.3
20260905112906 23 180 0.0 0.0 0.00 0.05 0.05 97 1016.5
20260905112401 23 151 0.0 0.0 0.13 0.05 0.05 97 1016.4
20260905111856 23 151 0.0 0.0 0.30 0.05 0.05 97 1016.4
20260905111356 22 163 0.0 0.0 0.18 0.03 0.03 97 1016.4
20260905110856 22 165 0.0 0.0 0.00 0.00 0.00 97 1016.6
20260905110350 22 168 0.0 0.0 0.00 0.00 0.00 97 1016.4
20260905105845 22 181 0.0 0.0 0.00 0.00 0.00 97 1016.3
20260905105345 22 151 0.0 0.0 0.00 0.00 0.00 97 1016.7
20260905104844 22 197 0.0 0.0 0.00 0.00 0.00 97 1016.3
20260905104341 22 193 0.0 0.0 0.00 0.00 0.00 97 1016.4
20260905103841 22 165 0.0 0.0 0.00 0.00 0.00 97 1016.5
20260905103336 22 163 0.0 0.0 0.00 0.00 0.00 97 1016.4
20260905102832 22 158 0.0 0.0 0.00 0.00 0.00 97 1016.4
20260905102329 22 122 0.0 0.0 0.00 0.00 0.00 97 1016.6
20260905101828 22 142 0.0 0.0 0.00 0.00 0.00 97 1016.3
20260905101327 22 88 0.0 0.0 0.00 0.00 0.00 96 1016.6
20260905100821 22 152 0.0 0.0 0.00 0.00 0.00 96 1016.6
20260905100318 22 152 0.0 0.0 0.00 0.00 0.00 96 1016.5
20260905095817 22 152 0.0 0.0 0.00 0.00 0.00 96 1016.5
20260905095316 22 152 0.0 0.0 0.00 0.00 0.00 96 1016.6
20260905094811 22 113 0.0 0.0 0.00 0.00 0.00 96 1016.6
20260905094307 22 112 0.0 0.0 0.00 0.00 0.00 96 1016.4
20260905093806 22 112 0.0 0.0 0.00 0.00 0.00 96 1016.6
20260905093302 22 113 0.0 0.0 0.00 0.00 0.00 96 1016.5
20260905092757 22 113 0.0 0.0 0.00 0.00 0.00 96 1016.5
20260905092253 22 113 0.0 0.0 0.00 0.00 0.00 96 1016.5
20260905091752 22 113 0.0 0.0 0.00 0.00 0.00 95 1016.2
20260905091247 22 113 0.0 0.0 0.00 0.00 0.00 95 1016.4
20260905090746 22 110 0.0 0.0 0.00 0.00 0.00 95 1016.5
20260905090242 22 110 0.0 0.0 0.00 0.00 0.00 95 1016.3
20260905085742 22 110 0.0 0.0 0.00 0.00 0.00 95 1016.1
20260905085241 23 195 0.0 0.0 0.00 0.00 0.00 95 1016.3
20260905084742 23 195 0.0 0.0 0.00 0.00 0.00 95 1016.1
20260905084241 22 195 0.0 0.0 0.00 0.00 0.00 96 1016.0
20260905083736 23 195 0.0 0.0 0.00 0.00 0.00 95 1016.1
20260905083232 23 196 0.0 0.0 0.00 0.00 0.00 95 1016.1
20260905082728 22 189 0.0 0.0 0.00 0.00 0.00 96 1015.9
20260905082223 22 189 0.0 0.0 0.00 0.00 0.00 95 1016.2
20260905081718 22 189 0.0 0.0 0.00 0.00 0.00 95 1016.0
20260905081213 23 189 0.0 0.0 0.00 0.00 0.00 95 1016.1
20260905080713 23 189 0.0 0.0 0.00 0.00 0.00 95 1015.9
20260905080212 23 189 0.0 0.0 0.00 0.00 0.00 95 1016.2
20260905075712 23 159 0.0 0.0 0.00 0.00 0.00 95 1015.9
20260905075211 23 176 0.0 0.0 0.00 0.00 0.00 95 1015.9
20260905074710 23 179 0.0 0.0 0.00 0.00 0.00 96 1016.2
20260905074206 23 195 0.0 0.0 0.00 0.00 0.00 97 1015.9
20260905073701 22 218 0.0 0.0 0.00 0.00 0.00 97 1016.0
20260905073157 22 173 0.0 0.0 0.00 0.00 0.00 97 1016.0
20260905072656 22 155 0.0 0.0 0.00 0.00 0.00 97 1016.2
20260905072152 22 153 0.0 0.0 0.00 0.00 0.00 97 1016.1
20260905071648 22 151 0.0 0.0 0.00 0.00 0.00 97 1016.1
20260905071144 22 175 0.0 0.0 0.00 0.00 0.00 96 1016.1
20260905070638 22 175 0.0 0.0 0.00 0.00 0.00 96 1016.3
20260905070135 22 175 0.0 0.0 0.00 0.00 0.00 96 1016.3
20260905065633 22 175 0.0 0.0 0.00 0.00 0.00 96 1016.2
20260905065127 22 176 0.0 0.0 0.00 0.00 0.00 96 1016.5
20260905064623 23 176 0.0 0.0 0.00 0.00 0.00 96 1016.7
20260905064118 23 176 0.0 0.0 0.00 0.00 0.00 97 1016.8
20260905063617 23 176 0.0 0.0 0.00 0.00 0.00 97 1016.7
20260905063114 23 174 0.0 0.0 0.00 0.00 0.00 97 1016.7
20260905062609 22 168 0.0 0.0 0.00 0.00 0.00 97 1016.8
20260905062108 22 168 0.0 0.0 0.00 0.00 0.00 97 1016.7
20260905061603 22 162 0.0 0.0 0.00 0.00 0.00 96 1016.9
20260905061103 22 162 0.0 0.0 0.00 0.00 0.00 96 1016.9
20260905060558 23 161 0.0 0.0 0.00 0.00 0.00 96 1016.9
20260905060054 23 161 0.0 0.0 0.00 0.00 0.00 96 1016.9
20260905055553 23 161 0.0 0.0 0.00 0.00 0.00 96 1016.8
20260905055048 23 162 0.0 0.0 0.00 0.00 0.00 96 1016.9
20260905054544 23 162 0.0 0.0 0.00 0.00 0.00 96 1016.7
20260905054039 23 139 0.0 0.0 0.00 0.00 0.00 96 1017.0
20260905053538 23 139 0.0 0.0 0.00 0.00 0.00 96 1017.0
20260905053034 23 139 0.0 0.0 0.00 0.00 0.00 96 1017.1
20260905052533 23 139 0.0 0.0 0.00 0.00 0.00 96 1017.1
20260905052028 23 139 0.0 0.0 0.00 0.00 0.00 96 1017.0
20260905051524 23 139 0.0 0.0 0.00 0.00 0.00 96 1017.1
20260905051021 23 139 0.0 0.0 0.00 0.00 0.00 96 1017.1
20260905050516 23 127 0.0 0.0 0.00 0.00 0.00 96 1017.3
20260905050013 23 127 0.0 0.0 0.00 0.00 0.00 96 1017.1
20260905045507 23 131 0.0 0.0 0.00 0.00 0.00 96 1017.4
20260905045002 23 133 0.0 0.0 0.00 0.00 0.00 96 1017.4
20260905044457 23 172 0.0 0.0 0.00 0.00 0.00 96 1017.1
20260905043956 23 173 0.0 0.0 0.00 0.00 0.00 96 1017.4
20260905043456 24 174 0.0 0.0 0.00 0.00 0.00 96 1017.1
20260905042951 24 191 0.0 0.0 0.00 0.00 0.00 96 1017.2
20260905042450 24 194 0.0 0.0 0.00 0.00 0.00 97 1017.4
20260905041946 24 205 0.0 0.0 0.00 0.00 0.00 97 1017.2
20260905041441 25 194 0.0 0.0 0.00 0.00 0.00 97 1017.2
20260905040937 25 184 0.0 0.0 0.00 0.00 0.00 97 1017.4
20260905040436 24 203 0.0 0.0 0.00 0.00 0.00 97 1017.8
20260905035935 23 150 0.0 0.0 0.00 0.00 0.00 96 1017.7
20260905035430 23 144 0.0 0.0 0.00 0.00 0.00 96 1017.4
20260905034928 23 144 0.0 0.0 0.00 0.00 0.00 96 1017.6
20260905034422 24 144 0.0 0.0 0.00 0.00 0.00 96 1017.7
20260905033921 24 141 0.0 0.0 0.00 0.00 0.00 96 1017.6
20260905033416 24 141 0.0 0.0 0.00 0.00 0.00 96 1017.9
20260905032916 23 141 0.0 0.0 0.00 0.00 0.00 96 1017.9
20260905032412 23 141 0.0 0.0 0.00 0.00 0.00 96 1017.9
20260905031907 23 141 0.0 0.0 0.00 0.00 0.00 96 1017.6
20260905031403 24 141 0.0 0.0 0.00 0.00 0.00 96 1017.8
20260905030858 24 141 0.0 0.0 0.00 0.00 0.00 96 1017.7
20260905030354 24 141 0.0 0.0 0.00 0.00 0.00 95 1017.9
20260905025852 24 141 0.0 0.0 0.00 0.00 0.00 95 1017.9
20260905025348 24 142 0.0 0.0 0.00 0.00 0.00 95 1017.9
20260905024844 25 151 0.0 0.0 0.00 0.00 0.00 95 1017.5
20260905024344 25 151 0.0 0.0 0.00 0.00 0.00 95 1017.8
20260905023840 25 151 0.0 0.0 0.00 0.00 0.00 95 1017.7
20260905023335 25 151 0.0 0.0 0.00 0.00 0.00 95 1017.7
20260905022833 25 151 0.0 0.0 0.00 0.00 0.00 95 1017.7
20260905022329 25 135 0.0 0.0 0.00 0.00 0.00 95 1017.6
20260905021824 25 134 0.0 0.0 0.00 0.00 0.00 94 1017.7
20260905021319 25 134 0.0 0.0 0.00 0.00 0.00 94 1017.7
20260905020814 25 134 0.0 0.0 0.00 0.00 0.00 93 1017.5
20260905020309 25 134 0.0 0.0 0.00 0.00 0.00 93 1017.7
20260905015808 25 134 0.0 0.0 0.00 0.00 0.00 93 1017.6
20260905015306 25 133 0.0 0.0 0.00 0.00 0.00 93 1017.7
20260905014801 25 138 0.0 0.0 0.00 0.00 0.00 94 1017.8
20260905014257 25 133 0.0 0.0 0.00 0.00 0.00 94 1017.6
20260905013752 26 123 0.0 0.0 0.00 0.00 0.00 93 1017.8
20260905013248 26 119 0.0 0.0 0.00 0.00 0.00 93 1017.5
20260905012743 26 128 0.0 0.0 0.00 0.00 0.00 93 1017.5
20260905012239 26 129 0.0 0.0 0.00 0.00 0.00 92 1017.6
20260905011736 26 129 0.0 0.0 0.00 0.00 0.00 92 1017.6
20260905011231 26 127 0.0 0.0 0.00 0.00 0.00 91 1017.4
20260905010731 26 141 0.0 0.0 0.00 0.00 0.00 91 1017.6
20260905010226 26 141 0.0 0.0 0.00 0.00 0.00 90 1017.7
20260905005723 26 141 0.0 0.0 0.00 0.00 0.00 90 1017.6
20260905005218 27 141 0.0 0.0 0.00 0.00 0.00 89 1017.4
20260905004713 27 141 0.0 0.0 0.00 0.00 0.00 88 1017.8
20260905004208 27 141 0.0 0.0 0.00 0.00 0.00 87 1017.8
20260905003703 28 141 0.0 0.0 0.00 0.00 0.00 86 1017.6
20260905003159 28 141 0.0 0.0 0.00 0.00 0.00 85 1017.5
20260905002654 28 144 0.0 0.0 0.00 0.00 0.00 85 1017.5
20260905002154 28 140 0.0 0.0 0.00 0.00 0.00 83 1017.5
20260905001649 28 139 0.0 0.0 0.00 0.00 0.00 82 1017.5
20260905001148 29 171 0.0 0.0 0.00 0.00 0.00 82 1017.8
20260905000644 29 158 0.0 0.0 0.00 0.00 0.00 81 1017.6
20260905000140 30 157 0.0 0.0 0.00 0.00 0.00 80 1017.6
20260904235639 30 157 0.0 0.0 0.00 0.00 0.00 79 1017.6
20260904235139 31 184 0.0 0.0 0.00 0.00 0.00 76 1017.8
20260904234634 31 184 0.0 0.0 0.00 0.00 0.00 73 1017.6
20260904234130 31 184 0.0 0.0 0.00 0.00 0.00 72 1017.7
20260904233625 31 184 0.0 0.0 0.00 0.00 0.00 70 1017.6
20260904233121 32 184 0.0 0.0 0.00 0.00 0.00 69 1017.6
20260904232618 32 183 0.0 0.0 0.00 0.00 0.00 65 1017.9
20260904232114 32 188 0.0 0.0 0.00 0.00 0.00 64 1017.8
20260904231609 32 182 0.0 0.0 0.00 0.00 0.00 63 1017.6
20260904231109 33 172 0.0 0.0 0.00 0.00 0.00 64 1017.8
20260904230608 33 191 0.0 0.0 0.00 0.00 0.00 61 1017.7
20260904230104 33 194 1.6 1.6 0.00 0.00 0.00 59 1017.8
20260904225601 33 256 1.6 3.2 0.00 0.00 0.00 57 1017.7
20260904225056 34 230 1.6 1.6 0.00 0.00 0.00 57 1017.6
20260904224551 34 159 0.0 0.0 0.00 0.00 0.00 56 1017.8
20260904224046 35 202 1.6 1.6 0.00 0.00 0.00 55 1017.6
20260904223545 35 206 3.2 3.2 0.00 0.00 0.00 55 1017.6
20260904223041 35 195 1.6 3.2 0.00 0.00 0.00 55 1017.7
20260904222536 35 189 0.0 1.6 0.00 0.00 0.00 54 1017.9
20260904222031 35 161 1.6 1.6 0.00 0.00 0.00 53 1017.8
20260904221526 35 181 4.8 4.8 0.00 0.00 0.00 53 1017.7
20260904221020 35 199 1.6 1.6 0.00 0.00 0.00 54 1017.9
20260904220520 35 235 4.8 8.0 0.00 0.00 0.00 53 1017.8
20260904220016 35 218 4.8 8.0 0.00 0.00 0.00 51 1017.9
20260904215516 35 303 3.2 4.8 0.00 0.00 0.00 52 1017.8
20260904215012 35 212 4.8 4.8 0.00 0.00 0.00 54 1017.9
20260904214507 35 222 6.4 8.0 0.00 0.00 0.00 53 1018.2
20260904214002 35 250 8.0 8.0 0.00 0.00 0.00 51 1018.3
20260904213500 35 178 3.2 4.8 0.00 0.00 0.00 53 1018.2
20260904212957 35 176 3.2 3.2 0.00 0.00 0.00 54 1018.2
20260904212457 35 240 8.0 9.7 0.00 0.00 0.00 51 1018.1
20260904211952 35 181 1.6 1.6 0.00 0.00 0.00 53 1018.1
20260904211452 36 224 8.0 11.3 0.00 0.00 0.00 48 1018.2
20260904210948 36 2 1.6 3.2 0.00 0.00 0.00 50 1018.2
20260904210446 36 191 1.6 3.2 0.00 0.00 0.00 50 1018.4
20260904205942 36 174 1.6 3.2 0.00 0.00 0.00 53 1018.6
20260904205438 35 195 6.4 9.7 0.00 0.00 0.00 52 1018.4